Regional Weather Roundup
Issued by NWS

Home | Current Version | Previous Version | Text Only | Print | Product List | Glossary Off
Versions: 1 2 3 4 5 6 7 8 9 10 11 12 13 14 15 16 17 18 19 20 21 22 23 24 25 26 27 28 29 30 31 32 33 34 35 36 37 38 39 40 41 42 43 44 45 46 47 48 49 50

000
ASUS43 KDTX 242001
RWRMI
MICHIGAN HOURLY REGIONAL WEATHER ROUNDUP
NATIONAL WEATHER SERVICE DETROIT/PONTIAC MI
400 PM EDT TUE MAY 24 2016

NOTE: "FAIR" INDICATES FEW OR NO CLOUDS BELOW 12,000 FEET WITH NO
SIGNIFICANT WEATHER AND/OR OBSTRUCTION TO VISIBILITY.

MIZ047>049-052>055-059>063-066>070-074>076-081>083-242100-
SOUTHEAST LOWER MICHIGAN

CITY           SKY/WX    TMP DP  RH WIND       PRES   REMARKS
ADRIAN         SUNNY     83  49  30 W8G18     30.03S
ALMA           SUNNY     82  49  31 W13G23    29.98S
ANN ARBOR      SUNNY     83  49  30 W12G17    30.01S
BAD AXE        SUNNY     84  46  26 W12       29.96S
CARO           SUNNY     84  49  29 SW7       29.96S
DETROIT CITY   SUNNY     83  47  28 SW10      29.99F
DETROIT        PTSUNNY   84  48  28 SW7       30.01S
FLINT          SUNNY     87  45  23 SW8       29.98F
GROSSE ILE     SUNNY     77  48  36 S10       30.00S
HILLSDALE      SUNNY     82  37  19 W9        30.03F
HOWELL         SUNNY     83  46  27 S7        30.00S

CITY           SKY/WX    TMP DP  RH WIND       PRES   REMARKS
JACKSON        MOSUNNY   82  49  31 W8        30.00F
LAMBERTVILLE   SUNNY     84  43  23 W5        30.02F
LANSING        SUNNY     84  50  30 SW16G23   30.00S
LAPEER         FAIR      85  40  19 W10       29.98F
MASON          SUNNY     83  50  32 W8        30.00S
MONROE         SUNNY     85  49  28 W16       30.00F
PONTIAC        MOSUNNY   84  46  26 VRB7      29.99S
PORT HOPE        N/A     65  54  67 E9        29.94F
PORT HURON     SUNNY     82  48  30 S8        29.99S
TRI CITIES     SUNNY     87  49  26 W15G21    29.96S
MIDLAND        FAIR      85  49  28 SW14      29.94F
TROY           SUNNY     85  45  23 SW12      30.01S
SAGINAW HB     SUNNY     86  41  20 SW12      29.96S
$$
MIZ043>046-050>051-056>058-064>065-071>073-077>080-242100-
SOUTHWEST LOWER MICHIGAN

CITY           SKY/WX    TMP DP  RH WIND       PRES   REMARKS
BATTLE CREEK   SUNNY     82  50  32 SW17      30.01F
BENTON HARBOR  SUNNY     83  53  35 W10       29.98F
BIG RAPIDS     SUNNY     82  46  28 SW18      29.96F
COLDWATER      SUNNY     82  48  30 W9        30.01F
FREMONT        FAIR      82  47  28 SW15G24   29.97F
HOLLAND        SUNNY     81  51  35 SW14      30.00F
GRAND RAPIDS   PTSUNNY   86  48  26 SW14      29.99F
IONIA          FAIR      83  47  27 W12G20    29.98F
KALAMAZOO      SUNNY     84  49  29 S14       30.00S
LUDINGTON      SUNNY     74  53  47 SW12      29.95S
MARSHALL       SUNNY     84  49  30 S9        30.00F
MOUNT PLEASANT MOSUNNY   84  49  30 SW15G22   29.96S
MUSKEGON       PTSUNNY   79  51  37 S14       29.98F
SOUTH HAVEN    SUNNY     82  48  30 W9        29.99F
$$
MIZ016>042-242100-
NORTHERN LOWER MICHIGAN

CITY           SKY/WX    TMP DP  RH WIND       PRES   REMARKS
ALPENA         MOSUNNY   86  46  24 SE16      29.89F
BEAVER ISLAND  CLOUDY    67  47  49 W3        29.92F
BELLAIRE       MOSUNNY   85  44  23 W6        29.90F
CADILLAC       SUNNY     85  44  24 SW20G26   29.95S
CHARLEVOIX     MOSUNNY   79  49  35 W10       29.94S
FRANKFORT      MOSUNNY   74  52  44 SW10G20   29.93R
GAYLORD        CLOUDY    84  43  23 SW12G24   29.93S
GRAYLING       CLOUDY    86  46  24 SW10G16   29.93F
HARBOR SPRINGS MOSUNNY   81  49  33 W13       29.91S
HOUGHTON LAKE  SUNNY     84  45  25 SW13G22   29.95F
MANISTEE       SUNNY     82  43  24 SW17G28   29.94S
OSCODA         CLOUDY    86  44  22 S18G24    29.91F
PELLSTON       MOSUNNY   84  47  27 W16G25    29.90F
ROGERS CITY    MOSUNNY   62  48  60 NE3       29.93S
TRAVERSE CITY  PTSUNNY   87  41  19 SW8G24    29.88F
$$
MIZ007>008-015-242100-
EASTERN UPPER MICHIGAN

CITY           SKY/WX    TMP DP  RH WIND       PRES   REMARKS
KINROSS          N/A     79  54  41 SW8       29.90S
MACKINAC ISLAN PTSUNNY   70  47  43 W7G17     29.91S
NEWBERRY       LGT RAIN  65  57  77 SW6       29.93R
S. S. MARIE    PTSUNNY   74  55  51 NW9       29.89R
MUNISING         N/A     52  51  97 N7        29.92R
$$
MIZ004>006-011>014-085-242100-
CENTRAL UPPER MICHIGAN

CITY           SKY/WX    TMP DP  RH WIND       PRES   REMARKS
MANISTIQUE     LGT RAIN  55  52  92 CALM      29.92F
ESCANABA       CLOUDY    63  59  88 N5        29.91S
MENOMINEE      CLOUDY    79  61  53 SW10      29.89S
SAWYER-GWINN   CLOUDY    63  61  94 NE5       29.94R
$$
MIZ001>003-009>011-084-242100-
WESTERN UPPER MICHIGAN

CITY           SKY/WX    TMP DP  RH WIND       PRES   REMARKS
IRON MOUNTAIN  HVY RAIN  65  62  90 W9        29.91R VSB 1
HOUGHTON       CLOUDY    60  56  86 E14G20    29.92R
COPPER HARBOR    N/A     61  57  87 VRB7      29.90F
$$

ABBREVIATIONS USED IN REMARKS
   TC - TEMPERATURE IN CELSIUS
  WCI - WIND CHILL INDEX
   HX - HEAT INDEX
  VSB - VISIBILITY




USA.gov is the U.S. government's official web portal to all federal, state and local government web resources and services.